Terminal Aerodrome Forecast
Issued by NWS

Home | Current Version | Previous Version | Graphics & Text | Print | Product List | Glossary Off
Versions: 1 2 3 4 5 6 7 8 9 10 11 12 13 14 15 16 17 18 19 20 21

000
FTUS43 KDDC 172335
TAFGCK
TAF
KGCK 172335Z 1800/1824 08009KT P6SM SCT020
     FM180300 13006KT P6SM VCSH BKN020
     FM181000 17007KT P6SM BKN040
     FM181600 22012KT P6SM FEW200=

USA.gov is the U.S. government's official web portal to all federal, state and local government web resources and services.